Temperature
18 18 18 18 18 18 17 17 17 17 17 17 17 17 18 18 18 18 18 18 18 18 18 18 18 18 18 18 18 18 18 18 18 18 18 18 18 17 17 17 17 17 17
18 18 18 18 17 17 17 17 17 17 17 17 17 17 17 17 18 18 18 18 18 18 18 18 18 18 18 18 18 18 18 18 18 18 18 18 18 17 17 17 17 17 17
18 18 17 17 17 17 17 17 17 16 16 16 16 17 17 17 17 17 17 17 18 18 18 18 18 17 17 17 18 18 18 18 18 18 18 18 17 17 17 17 17 17 17
17 17 17 17 17 17 17 17 16 16 16 16 16 16 16 16 17 17 17 17 17 17 17 17 17 17 18 17 18 18 18 18 18 18 17 17 17 17 17 17 17 17 17
17 17 17 17 17 17 16 16 16 16 16 16 16 16 16 16 16 16 16 16 17 17 17 17 17 17 17 18 18 18 18 18 18 18 17 17 17 17 17 17 17 17 17
16 16 16 16 16 16 16 16 16 16 15 15 15 15 16 16 16 16 16 16 16 17 17 17 17 17 17 18 18 18 18 18 18 18 17 17 17 17 17 17 17 17 17
15 15 15 15 15 15 15 15 15 15 15 15 15 15 16 16 16 16 16 16 16 16 17 17 17 17 17 17 17 17 17 17 17 17 17 17 17 17 17 17 17 17 17
14 14 14 14 15 15 15 15 14 14 14 14 14 14 15 15 16 16 16 16 16 17 17 17 17 17 17 17 17 17 17 17 17 17 17 17 17 17 17 17 17 16 16
14 14 14 14 14 14 14 14 14 14 14 14 14 14 14 15 15 16 16 16 16 17 17 17 17 17 17 17 17 17 17 17 17 17 17 17 17 17 17 17 16 16 16
14 14 13 13 14 14 14 14 14 14 14 14 14 14 14 14 14 15 16 16 16 17 17 17 17 17 17 17 17 18 18 17 17 17 17 17 17 17 17 16 16 16 16
13 13 13 13 13 13 13 13 13 13 13 13 13 13 14 14 14 14 14 16 16 17 17 17 17 17 17 18 18 18 17 17 17 17 17 17 17 17 16 16 16 16 16
12 12 12 12 12 12 12 13 13 13 13 13 13 13 13 13 13 14 14 15 16 16 16 17 17 17 17 18 18 17 17 17 17 17 17 16 16 16 16 16 16 16 16
11 12 12 12 12 12 12 12 12 12 12 13 13 13 13 13 13 13 13 14 15 15 16 17 17 17 17 17 17 17 17 17 17 17 16 16 16 16 16 16 16 16 16
11 11 11 11 11 11 11 11 11 12 12 12 12 12 12 13 13 13 13 13 14 15 16 16 17 17 17 17 17 17 17 17 17 17 16 16 16 16 16 16 16 16 16
10 10 10 10 10 10 11 11 11 11 11 11 11 12 12 12 12 12 13 13 13 14 15 16 16 16 17 17 17 17 17 17 16 16 16 16 16 16 16 16 16 16 16
10 10 10 10 10 10 10 10 10 10 11 11 11 11 11 12 12 12 12 12 13 13 14 15 16 16 16 16 16 16 16 16 16 16 16 16 16 16 16 16 16 16 16
9 9 9 9 9 10 10 10 10 10 10 10 10 11 11 11 11 12 12 12 12 13 13 14 15 15 15 16 16 16 16 16 16 16 16 16 16 16 16 16 16 16 16
9 9 9 9 9 9 9 9 9 9 10 10 10 10 10 11 11 11 11 12 12 12 13 13 14 15 15 15 15 15 15 15 15 16 16 16 16 16 16 16 16 16 16
9 9 9 8 9 9 9 9 9 9 9 9 10 10 10 10 10 11 11 11 11 12 12 13 13 14 14 14 15 15 15 15 15 15 15 15 15 16 16 16 16 16 16
9 8 8 8 8 8 8 9 9 9 9 9 9 9 10 10 10 10 11 11 11 11 12 12 13 13 13 13 14 14 14 14 14 14 14 15 15 15 15 15 15 15 15
8 8 8 8 8 8 8 8 8 8 8 9 9 9 9 10 10 10 10 11 11 11 11 12 12 12 12 13 13 13 13 13 13 13 13 14 14 14 14 15 15 15 15
8 8 8 8 8 8 8 8 8 8 8 8 8 9 9 9 9 10 10 10 10 11 11 11 12 12 12 12 13 13 13 12 12 12 12 12 12 13 14 14 14 14 14
8 8 8 8 8 8 8 8 8 7 7 8 8 8 8 9 9 9 10 10 10 10 11 11 11 12 12 12 12 12 12 13 13 12 12 11 12 12 12 13 13 13 14
8 8 8 8 8 8 8 8 7 7 7 7 8 8 8 8 8 9 9 9 10 10 10 10 11 11 11 12 12 12 12 12 12 12 12 11 11 11 11 12 12 13 13
8 8 8 8 8 8 8 7 7 7 7 7 7 8 8 8 8 9 9 9 9 10 10 10 10 11 11 11 11 11 12 11 11 11 11 12 11 11 11 11 11 12 12
8 8 8 8 7 7 7 7 7 7 7 7 7 7 8 8 8 8 9 9 9 10 10 10 10 10 10 11 11 11 12 12 12 11 11 11 11 11 10 11 11 11 12
Wind_Speed
4 3 2 3 3 4 5 5 7 7 9 11 12 12 11 13 14 14 14 17 19 23 27 27 26 25 26 26 26 25 25 24 23 23 22 21 21 20 19 19 18 18 18
2 2 1 1 2 3 4 5 6 7 7 7 9 10 10 11 13 14 14 16 18 20 24 26 27 27 27 27 27 26 26 26 25 25 24 23 23 22 21 20 20 19 19
3 2 1 1 2 4 5 4 5 5 6 7 9 10 8 9 10 12 15 15 15 19 23 25 26 27 27 27 27 27 27 27 26 26 26 25 24 23 23 22 21 21 21
3 2 1 1 3 3 2 3 3 4 5 6 7 8 8 7 9 11 13 14 15 16 21 26 27 28 28 28 27 27 27 28 27 27 27 27 26 25 24 24 23 22 22
3 2 1 1 2 2 2 3 3 3 5 5 6 7 8 8 9 11 11 12 16 18 18 23 29 29 29 29 28 28 27 28 28 28 28 28 27 26 26 25 24 24 24
2 2 1 2 1 1 3 3 4 4 4 5 7 7 6 7 7 9 11 10 13 18 20 19 21 24 29 29 29 28 28 28 29 29 29 28 28 27 27 27 26 26 25
2 1 1 2 2 2 4 4 3 4 4 3 3 4 5 7 9 9 9 9 11 14 16 18 17 18 19 27 29 29 29 28 28 29 29 29 28 28 28 27 27 27 26
4 3 3 3 3 3 4 4 3 3 3 3 2 3 3 4 5 9 8 9 10 9 12 15 15 17 17 16 21 28 28 28 28 28 28 29 28 28 28 28 27 27 27
6 5 5 5 5 4 5 5 4 4 4 3 3 3 3 3 3 3 6 8 8 8 10 9 12 16 18 16 17 23 27 27 26 26 27 27 28 28 28 28 28 27 27
7 6 5 5 5 5 5 5 4 3 3 4 3 3 4 3 3 3 3 4 6 7 8 10 11 12 16 15 17 19 23 26 26 26 26 26 26 27 27 28 28 27 27
6 6 5 4 4 4 5 5 4 4 3 3 3 3 3 3 3 3 4 3 2 3 5 7 7 8 12 14 15 18 22 24 25 25 25 25 25 25 26 27 27 27 26
5 6 5 4 4 4 5 5 5 4 4 4 4 4 3 3 2 2 3 3 3 3 3 5 6 8 8 12 15 18 20 21 22 23 23 24 24 24 25 25 26 26 26
5 6 6 4 3 4 5 5 4 5 5 4 5 4 4 4 3 2 2 2 3 3 2 3 5 6 7 9 11 16 17 18 19 20 20 21 22 22 23 23 24 24 24
6 6 6 5 5 6 6 5 4 6 5 5 6 5 4 4 4 3 3 2 2 2 1 2 1 2 4 7 10 13 11 15 15 16 17 18 18 20 21 22 22 22 23
6 7 6 6 6 6 6 5 5 6 6 6 6 6 5 4 4 4 4 4 3 2 2 2 0 0 2 4 9 9 9 10 12 13 13 14 15 16 17 19 19 20 20
7 7 7 7 7 7 7 6 6 6 6 7 6 6 6 5 4 4 4 4 4 3 3 2 1 1 2 4 7 9 9 11 10 10 10 10 11 13 15 16 17 17 17
7 8 8 8 8 8 7 7 7 7 7 7 7 7 8 6 5 4 4 4 5 4 4 3 1 1 2 6 6 7 9 8 7 9 9 9 9 10 11 12 13 14 14
8 8 8 8 9 9 8 8 8 8 8 8 8 8 8 7 7 5 4 5 5 5 5 4 2 2 2 6 7 8 6 7 7 9 10 9 9 10 10 11 11 11 11
9 8 8 9 9 9 9 9 9 9 9 9 9 9 9 8 8 6 6 5 5 5 5 4 3 2 2 5 6 6 7 5 6 9 11 11 11 11 11 11 11 11 11
9 9 9 9 9 10 10 10 9 9 9 9 9 9 9 9 10 9 7 7 6 5 5 4 3 4 4 5 6 7 6 4 4 5 8 10 12 12 12 11 11 12 12
10 9 9 9 9 9 10 10 10 10 9 9 9 9 10 12 14 11 8 7 6 5 5 5 5 5 6 7 7 5 7 6 4 3 5 4 5 6 7 9 10 12 13
9 9 9 10 10 10 13 15 12 9 8 9 9 8 9 11 13 16 15 13 11 8 7 6 6 7 7 7 6 8 8 7 4 4 4 4 3 5 4 6 9 12 13
9 9 9 9 10 12 16 17 18 11 9 9 9 8 9 9 10 9 12 15 14 14 11 8 8 7 7 8 10 11 10 8 4 8 6 4 3 3 4 6 9 12 13
9 9 10 10 10 12 16 16 17 12 10 10 10 10 10 9 9 8 8 8 9 9 11 8 7 7 6 7 11 11 10 7 5 7 5 4 3 3 3 6 7 10 12
9 9 9 10 10 12 15 16 15 8 8 10 11 11 10 10 12 13 9 8 8 7 9 11 10 9 9 10 10 10 11 11 7 5 3 4 4 3 3 2 5 8 11
10 9 9 9 10 11 13 14 13 6 8 8 8 9 13 13 13 14 10 9 9 8 7 7 7 8 8 9 13 13 13 13 8 5 5 5 6 5 4 2 2 5 7
Wind_Direction
209 208 224 238 233 218 219 227 228 229 231 230 230 230 230 230 230 231 237 241 235 218 210 208 206 210 210 206 203 203 203 202 201 200 200 200 199 198 197 195 193 192 190
180 198 222 226 244 235 229 225 229 234 235 230 234 235 233 232 230 230 233 235 231 225 216 212 211 214 215 213 209 207 206 206 204 203 203 203 202 201 200 199 198 197 196
148 164 211 247 242 241 239 238 235 234 240 240 240 240 238 233 230 231 232 229 228 229 222 215 213 216 217 218 215 211 209 208 206 205 205 205 205 204 202 202 201 200 200
145 150 187 248 263 259 249 249 241 238 242 243 244 245 241 233 232 230 230 228 228 229 227 220 216 219 220 220 218 216 213 210 209 207 207 207 207 206 205 204 204 203 203
146 151 201 255 281 283 271 271 267 250 252 252 253 247 239 233 232 233 226 224 225 226 224 222 220 221 222 223 221 219 216 214 211 210 209 210 209 208 207 207 206 206 206
179 171 198 252 263 279 283 278 277 267 257 256 266 262 248 240 233 231 228 224 224 226 224 221 221 227 228 225 222 220 219 217 214 213 213 213 211 209 208 208 207 208 208
272 228 239 254 250 249 259 270 272 278 271 258 266 278 266 246 239 236 229 225 223 225 222 219 217 221 226 226 224 222 220 219 217 216 215 214 213 210 208 209 209 210 210
307 279 249 248 245 244 257 259 255 269 269 244 233 267 284 280 248 235 226 225 227 223 221 219 216 216 218 217 220 221 220 220 220 219 217 215 214 211 209 209 211 212 212
303 287 268 254 245 229 239 247 240 242 266 268 226 226 246 258 284 255 229 229 227 221 221 214 213 215 214 212 213 217 218 218 219 220 218 216 214 211 209 210 211 213 214
305 299 285 265 249 234 231 241 234 229 240 268 268 241 237 250 269 302 283 238 230 224 220 221 216 213 212 209 210 211 214 216 218 220 219 217 214 211 210 212 212 213 215
307 307 302 286 267 250 240 237 239 236 231 241 247 254 255 253 240 254 289 300 283 242 225 218 209 207 205 203 205 210 211 212 214 216 216 215 213 211 212 214 215 216 217
307 309 305 302 286 270 257 247 237 237 241 244 246 238 232 242 240 235 258 278 279 274 250 227 210 204 196 195 202 204 207 208 210 211 212 212 211 211 212 214 217 219 220
297 299 301 294 291 283 274 259 247 245 243 246 246 245 236 232 223 222 247 264 272 276 268 245 220 198 186 181 190 192 199 201 204 207 209 210 210 211 211 212 215 217 218
269 278 282 276 275 277 278 264 255 252 246 245 250 247 247 241 222 211 218 229 264 276 279 266 287 195 168 165 170 169 176 187 192 197 201 203 206 208 209 210 211 213 214
274 282 282 280 279 276 271 264 254 255 251 245 245 243 243 247 235 220 215 209 211 237 251 257 238 92 148 141 152 146 145 162 174 181 188 193 198 202 203 205 207 210 212
275 283 284 280 277 273 268 261 257 254 249 248 242 240 240 239 237 226 220 214 206 210 234 239 224 180 150 140 132 127 128 137 147 160 173 181 188 195 199 201 204 205 206
271 272 273 276 276 274 268 260 255 257 253 253 249 240 240 235 233 226 218 212 205 198 231 248 229 136 126 134 124 115 113 111 117 135 147 156 165 172 177 184 187 190 192
266 263 264 266 269 272 265 258 259 261 249 250 249 241 241 238 231 225 216 220 214 204 211 231 210 170 137 145 139 129 119 113 107 116 125 130 137 145 149 157 162 166 171
266 263 260 260 262 263 262 258 252 252 246 242 242 238 237 229 232 225 216 218 219 216 201 202 205 180 140 143 138 125 116 106 104 108 106 109 116 121 126 135 143 150 154
266 265 261 257 256 257 257 257 255 252 249 245 239 235 233 224 224 223 221 216 214 210 198 194 193 180 160 149 145 142 132 116 112 108 98 100 103 104 110 120 129 136 140
273 265 264 263 260 258 260 255 251 256 250 249 246 237 235 233 226 217 217 210 203 202 196 192 195 186 175 165 165 155 146 132 102 114 112 95 94 92 94 106 118 128 132
273 270 266 265 264 269 268 264 258 254 246 243 246 243 243 245 240 225 219 210 198 196 197 193 198 192 191 176 164 158 150 152 150 151 125 104 92 93 81 91 118 126 130
276 273 269 265 263 262 262 263 262 256 244 240 236 234 246 244 231 221 220 218 212 206 198 192 196 200 191 184 173 168 169 166 152 156 136 116 97 86 70 90 117 126 131
276 273 272 268 266 268 264 261 260 256 245 240 234 227 226 233 229 213 208 207 209 210 206 200 196 198 192 186 183 175 164 145 116 146 139 121 113 89 72 73 108 126 132
282 276 273 270 269 271 268 264 260 253 243 240 236 231 223 222 222 209 196 198 205 216 216 205 199 197 190 188 180 168 163 162 156 160 146 122 128 109 85 65 89 120 133
280 282 281 276 271 271 272 271 265 246 239 239 237 235 228 220 216 204 192 191 201 207 197 198 202 204 199 196 190 186 178 174 163 158 159 131 138 136 122 95 84 108 122
Height
1535 1535 1535 1536 1535 1535 1534 1534 1534 1534 1535 1534 1535 1536 1537 1538 1539 1541 1542 1544 1545 1546 1548 1549 1552 1554 1556 1559 1561 1562 1564 1566 1568 1570 1573 1575 1577 1579 1581 1583 1585 1587 1588
1532 1532 1532 1531 1531 1530 1530 1529 1529 1529 1529 1529 1529 1529 1531 1532 1534 1535 1536 1538 1539 1540 1542 1544 1546 1549 1552 1554 1556 1558 1560 1562 1565 1567 1570 1572 1575 1577 1579 1581 1583 1585 1587
1529 1528 1528 1527 1527 1526 1525 1524 1523 1523 1523 1523 1523 1523 1524 1526 1527 1528 1530 1532 1533 1535 1536 1538 1540 1543 1546 1548 1551 1554 1556 1558 1561 1563 1566 1569 1571 1574 1576 1579 1581 1583 1585
1526 1525 1524 1524 1523 1522 1520 1519 1518 1517 1516 1516 1516 1516 1517 1519 1520 1522 1523 1525 1526 1528 1530 1532 1534 1537 1540 1542 1545 1548 1551 1553 1556 1559 1562 1565 1568 1570 1573 1576 1578 1580 1583
1523 1523 1522 1520 1519 1518 1516 1515 1513 1512 1511 1510 1510 1510 1510 1511 1512 1514 1515 1517 1519 1521 1523 1525 1528 1531 1534 1536 1539 1542 1545 1548 1551 1554 1557 1560 1564 1567 1569 1572 1575 1577 1580
1521 1520 1518 1517 1515 1514 1512 1511 1509 1507 1506 1505 1504 1503 1503 1504 1504 1505 1507 1509 1511 1514 1516 1519 1522 1524 1527 1530 1533 1536 1539 1542 1545 1549 1552 1556 1559 1562 1565 1568 1571 1574 1577
1518 1516 1515 1513 1512 1510 1508 1507 1505 1503 1502 1501 1499 1497 1497 1497 1497 1497 1499 1501 1504 1506 1509 1512 1515 1518 1521 1524 1527 1530 1533 1536 1540 1543 1546 1550 1554 1557 1560 1564 1567 1570 1573
1514 1512 1511 1509 1508 1506 1505 1503 1501 1499 1498 1498 1496 1495 1493 1492 1490 1491 1492 1494 1497 1500 1502 1505 1508 1511 1514 1518 1521 1524 1528 1531 1534 1537 1540 1544 1548 1552 1555 1559 1562 1566 1569
1509 1508 1506 1505 1504 1502 1501 1500 1498 1496 1495 1494 1493 1493 1491 1488 1486 1486 1487 1488 1490 1492 1495 1499 1501 1505 1508 1512 1515 1519 1522 1525 1528 1531 1535 1538 1542 1546 1549 1553 1557 1560 1564
1504 1502 1501 1500 1499 1498 1497 1496 1495 1493 1491 1490 1489 1489 1489 1487 1486 1483 1483 1484 1485 1486 1489 1492 1495 1499 1503 1506 1510 1513 1517 1520 1523 1526 1529 1532 1536 1540 1543 1547 1551 1555 1558
1499 1497 1496 1495 1493 1493 1492 1492 1491 1490 1488 1487 1486 1486 1485 1484 1483 1482 1480 1480 1481 1482 1484 1487 1490 1493 1497 1501 1505 1508 1512 1515 1518 1521 1524 1527 1530 1534 1538 1542 1546 1549 1552
1494 1492 1491 1490 1489 1488 1487 1487 1486 1486 1485 1484 1483 1482 1481 1481 1480 1480 1479 1478 1478 1479 1480 1483 1485 1489 1493 1496 1500 1504 1507 1510 1513 1516 1519 1522 1525 1529 1532 1536 1540 1543 1547
1489 1487 1486 1484 1483 1483 1482 1482 1481 1481 1480 1480 1479 1478 1477 1477 1477 1477 1476 1476 1475 1476 1478 1479 1482 1485 1489 1492 1496 1500 1503 1505 1508 1511 1514 1517 1520 1523 1527 1530 1534 1538 1541
1484 1482 1480 1479 1478 1477 1477 1476 1476 1475 1475 1475 1474 1474 1473 1473 1473 1473 1473 1473 1473 1474 1474 1476 1478 1481 1485 1488 1492 1496 1498 1501 1504 1506 1509 1512 1515 1518 1522 1525 1529 1533 1536
1479 1476 1475 1473 1472 1471 1471 1470 1470 1470 1469 1469 1469 1469 1469 1469 1469 1468 1469 1470 1471 1471 1471 1473 1475 1478 1481 1485 1488 1491 1494 1497 1500 1502 1505 1508 1511 1514 1517 1521 1524 1528 1531
1473 1471 1469 1467 1466 1465 1464 1464 1463 1463 1463 1463 1464 1464 1464 1464 1464 1464 1464 1464 1466 1468 1469 1470 1472 1475 1478 1482 1485 1488 1491 1493 1496 1498 1501 1504 1507 1510 1513 1516 1519 1523 1527
1468 1466 1464 1462 1460 1459 1458 1457 1456 1456 1456 1456 1457 1457 1458 1459 1459 1459 1459 1460 1461 1463 1465 1466 1469 1472 1475 1478 1481 1484 1487 1490 1492 1495 1497 1500 1503 1506 1509 1512 1515 1519 1522
1462 1460 1458 1456 1454 1452 1451 1450 1449 1449 1449 1449 1450 1451 1452 1453 1454 1454 1455 1455 1456 1458 1460 1462 1465 1468 1471 1474 1477 1481 1484 1486 1489 1491 1494 1497 1500 1502 1505 1509 1512 1515 1519
1456 1454 1452 1450 1448 1446 1445 1443 1443 1442 1442 1442 1443 1444 1445 1446 1447 1449 1450 1450 1452 1453 1455 1458 1460 1464 1467 1471 1474 1477 1481 1483 1486 1488 1491 1493 1496 1499 1502 1506 1509 1512 1515
1450 1448 1445 1443 1441 1439 1438 1436 1435 1435 1434 1435 1435 1436 1438 1439 1441 1443 1444 1445 1447 1448 1450 1453 1456 1459 1463 1467 1470 1474 1477 1480 1483 1486 1488 1491 1494 1496 1499 1503 1506 1509 1512
1444 1441 1439 1436 1434 1432 1430 1429 1428 1427 1427 1427 1428 1429 1430 1432 1434 1436 1438 1440 1441 1443 1445 1448 1451 1454 1458 1462 1466 1470 1474 1477 1481 1483 1485 1488 1491 1494 1496 1500 1503 1506 1509
1437 1435 1432 1429 1427 1425 1423 1422 1421 1420 1419 1419 1420 1421 1423 1425 1427 1429 1431 1434 1436 1438 1440 1443 1446 1449 1453 1457 1462 1466 1470 1474 1477 1481 1483 1486 1490 1492 1495 1498 1501 1504 1507
1431 1428 1425 1422 1419 1417 1416 1414 1413 1412 1411 1411 1412 1413 1415 1417 1420 1422 1425 1428 1430 1432 1436 1439 1441 1444 1448 1452 1457 1461 1466 1470 1474 1477 1481 1484 1488 1491 1493 1496 1499 1502 1505
1424 1421 1418 1415 1412 1409 1408 1406 1404 1403 1402 1402 1403 1405 1407 1409 1413 1416 1419 1421 1424 1427 1430 1433 1436 1440 1444 1447 1452 1456 1461 1467 1472 1476 1479 1482 1485 1489 1491 1494 1497 1500 1503
1418 1414 1411 1408 1405 1402 1400 1398 1396 1395 1394 1394 1395 1397 1399 1401 1405 1409 1412 1415 1418 1422 1425 1428 1431 1435 1438 1442 1446 1452 1456 1462 1466 1471 1475 1479 1482 1486 1489 1492 1495 1499 1502
1412 1409 1405 1402 1398 1395 1392 1390 1388 1387 1386 1386 1387 1389 1391 1394 1398 1401 1405 1409 1412 1416 1420 1423 1426 1429 1433 1437 1441 1445 1450 1455 1460 1466 1470 1475 1479 1483 1487 1490 1493 1497 1500